Time,TemperatureF,DewpointF,PressureIn,WindDirection,WindDirectionDegrees,WindSpeedMPH,WindSpeedGustMPH,Humidity,HourlyPrecipIn,Conditions,Clouds,dailyrainin,SoftwareType,DateUTC
2013-03-21 00:03:00,19.0,13.0,30.03,WSW,248,3.0,7.0,78,0.00,,,0.00,,2013-03-21 04:03:00,
2013-03-21 00:13:00,19.0,13.0,30.03,WSW,248,3.0,7.0,78,0.00,,,0.00,,2013-03-21 04:13:00,
2013-03-21 00:23:00,19.0,13.0,30.03,West,259,2.0,5.0,78,0.00,,,0.00,,2013-03-21 04:23:00,
2013-03-21 00:33:00,19.0,14.0,30.02,West,271,3.0,7.0,79,0.00,,,0.00,,2013-03-21 04:33:00,
2013-03-21 00:43:00,19.0,14.0,30.02,West,271,3.0,7.0,79,0.00,,,0.00,,2013-03-21 04:43:00,
2013-03-21 00:53:00,19.0,14.0,30.02,WSW,252,3.0,5.0,80,0.00,,,0.00,,2013-03-21 04:53:00,
2013-03-21 01:03:00,19.0,14.0,30.02,West,264,2.0,6.0,81,0.00,,,0.00,,2013-03-21 05:03:00,
2013-03-21 01:13:00,19.0,14.0,30.02,West,264,2.0,6.0,81,0.00,,,0.00,,2013-03-21 05:13:00,
2013-03-21 01:22:00,18.0,13.0,30.01,WSW,257,2.0,4.0,82,0.00,,,0.00,,2013-03-21 05:22:00,
2013-03-21 01:33:00,18.0,13.0,30.02,West,267,1.0,3.0,82,0.00,,,0.00,,2013-03-21 05:33:00,
2013-03-21 01:44:00,18.0,13.0,30.02,West,267,1.0,3.0,82,0.00,,,0.00,,2013-03-21 05:44:00,
2013-03-21 01:52:00,18.0,14.0,30.02,WSW,257,1.0,5.0,83,0.00,,,0.00,,2013-03-21 05:52:00,
2013-03-21 02:03:00,18.0,14.0,30.01,West,262,1.0,5.0,84,0.00,,,0.00,,2013-03-21 06:03:00,
2013-03-21 02:12:00,18.0,14.0,30.01,West,262,1.0,5.0,84,0.00,,,0.00,,2013-03-21 06:12:00,
2013-03-21 02:22:00,18.0,14.0,30.01,WSW,247,2.0,5.0,85,0.00,,,0.00,,2013-03-21 06:22:00,
2013-03-21 02:32:00,18.0,14.0,30.01,WSW,237,2.0,5.0,85,0.00,,,0.00,,2013-03-21 06:32:00,
2013-03-21 02:42:00,18.0,14.0,30.01,WSW,237,2.0,5.0,85,0.00,,,0.00,,2013-03-21 06:42:00,
2013-03-21 02:52:00,18.0,14.0,30.01,WSW,243,2.0,7.0,85,0.00,,,0.00,,2013-03-21 06:52:00,
2013-03-21 03:02:00,18.0,15.0,30.01,WSW,257,2.0,6.0,86,0.00,,,0.00,,2013-03-21 07:02:00,
2013-03-21 03:13:00,18.0,15.0,30.01,WSW,257,2.0,6.0,86,0.00,,,0.00,,2013-03-21 07:13:00,
2013-03-21 03:22:00,18.0,15.0,30.01,SW,224,2.0,6.0,86,0.00,,,0.00,,2013-03-21 07:22:00,
2013-03-21 03:32:00,18.0,15.0,30.00,WSW,238,2.0,6.0,86,0.00,,,0.00,,2013-03-21 07:32:00,
2013-03-21 03:42:00,18.0,15.0,30.00,WSW,238,2.0,6.0,86,0.00,,,0.00,,2013-03-21 07:42:00,
2013-03-21 03:52:00,18.0,15.0,30.00,WSW,249,1.0,6.0,87,0.00,,,0.00,,2013-03-21 07:52:00,
2013-03-21 04:02:00,19.0,16.0,30.00,WSW,252,3.0,7.0,87,0.00,,,0.00,,2013-03-21 08:02:00,
2013-03-21 04:13:00,19.0,16.0,30.00,West,266,2.0,7.0,87,0.00,,,0.00,,2013-03-21 08:13:00,
2013-03-21 04:23:00,19.0,16.0,30.00,West,266,2.0,7.0,87,0.00,,,0.00,,2013-03-21 08:23:00,
2013-03-21 04:33:00,19.0,16.0,30.00,WSW,250,3.0,7.0,86,0.00,,,0.00,,2013-03-21 08:33:00,
2013-03-21 04:42:00,19.0,16.0,30.00,WSW,250,3.0,7.0,86,0.00,,,0.00,,2013-03-21 08:42:00,
2013-03-21 04:52:00,19.0,16.0,29.99,West,261,2.0,5.0,86,0.00,,,0.00,,2013-03-21 08:52:00,
2013-03-21 05:02:00,19.0,16.0,29.99,WSW,257,2.0,6.0,86,0.00,,,0.00,,2013-03-21 09:02:00,
2013-03-21 05:11:00,19.0,16.0,29.99,WSW,257,2.0,6.0,86,0.00,,,0.00,,2013-03-21 09:11:00,
2013-03-21 05:22:00,18.0,15.0,29.99,West,260,2.0,6.0,87,0.00,,,0.00,,2013-03-21 09:22:00,
2013-03-21 05:33:00,19.0,16.0,29.98,WSW,238,4.0,7.0,86,0.00,,,0.00,,2013-03-21 09:33:00,
2013-03-21 05:43:00,19.0,16.0,29.98,WSW,238,4.0,7.0,86,0.00,,,0.00,,2013-03-21 09:43:00,
2013-03-21 05:53:00,19.0,16.0,29.98,West,267,3.0,8.0,86,0.00,,,0.00,,2013-03-21 09:53:00,
2013-03-21 06:03:00,19.0,16.0,29.98,WSW,255,4.0,8.0,86,0.00,,,0.00,,2013-03-21 10:03:00,
2013-03-21 06:12:00,19.0,16.0,29.98,WSW,255,4.0,8.0,86,0.00,,,0.00,,2013-03-21 10:12:00,
2013-03-21 06:23:00,19.0,16.0,29.98,SW,234,3.0,8.0,86,0.00,,,0.00,,2013-03-21 10:23:00,
2013-03-21 06:34:00,19.0,16.0,29.98,WSW,252,2.0,7.0,86,0.00,,,0.00,,2013-03-21 10:34:00,
2013-03-21 06:42:00,19.0,16.0,29.98,WSW,252,2.0,7.0,86,0.00,,,0.00,,2013-03-21 10:42:00,
2013-03-21 06:53:00,19.0,16.0,29.98,SW,230,3.0,8.0,86,0.00,,,0.00,,2013-03-21 10:53:00,
2013-03-21 07:03:00,19.0,16.0,29.98,SW,236,2.0,9.0,86,0.00,,,0.00,,2013-03-21 11:03:00,
2013-03-21 07:13:00,19.0,16.0,29.98,SW,236,2.0,9.0,86,0.00,,,0.00,,2013-03-21 11:13:00,
2013-03-21 07:22:00,19.0,16.0,29.98,WSW,256,3.0,9.0,87,0.00,,,0.00,,2013-03-21 11:22:00,
2013-03-21 07:33:00,18.0,15.0,29.98,SW,233,4.0,8.0,88,0.00,,,0.00,,2013-03-21 11:33:00,
2013-03-21 07:43:00,18.0,15.0,29.98,SW,233,4.0,8.0,88,0.00,,,0.00,,2013-03-21 11:43:00,
2013-03-21 07:52:00,18.0,15.0,29.98,West,261,3.0,9.0,88,0.00,,,0.00,,2013-03-21 11:52:00,
2013-03-21 08:03:00,18.0,15.0,29.99,WSW,249,4.0,8.0,88,0.00,,,0.00,,2013-03-21 12:03:00,
2013-03-21 08:13:00,18.0,15.0,29.99,WSW,249,4.0,8.0,88,0.00,,,0.00,,2013-03-21 12:13:00,
2013-03-21 08:22:00,18.0,15.0,29.99,WSW,247,5.0,11.0,89,0.00,,,0.00,,2013-03-21 12:22:00,
2013-03-21 08:33:00,18.0,15.0,29.98,WSW,257,3.0,8.0,89,0.00,,,0.00,,2013-03-21 12:33:00,
2013-03-21 08:43:00,18.0,15.0,29.98,WSW,257,3.0,8.0,89,0.00,,,0.00,,2013-03-21 12:43:00,
2013-03-21 08:52:00,19.0,16.0,29.98,West,265,4.0,11.0,89,0.00,,,0.00,,2013-03-21 12:52:00,
2013-03-21 09:03:00,19.0,16.0,29.98,WSW,253,5.0,9.0,89,0.00,,,0.00,,2013-03-21 13:03:00,
2013-03-21 09:12:00,19.0,16.0,29.98,WSW,253,5.0,9.0,89,0.00,,,0.00,,2013-03-21 13:12:00,
2013-03-21 09:22:00,20.0,17.0,29.98,West,265,5.0,11.0,87,0.00,,,0.00,,2013-03-21 13:22:00,
2013-03-21 09:32:00,21.0,17.0,29.98,WSW,255,6.0,11.0,86,0.00,,,0.00,,2013-03-21 13:32:00,
2013-03-21 09:42:00,21.0,17.0,29.98,WSW,255,6.0,11.0,86,0.00,,,0.00,,2013-03-21 13:42:00,
2013-03-21 09:52:00,21.0,17.0,29.98,WSW,255,6.0,11.0,86,0.00,,,0.00,,2013-03-21 13:52:00,
2013-03-21 10:02:00,23.0,19.0,29.98,WSW,242,3.0,12.0,85,0.00,,,0.00,,2013-03-21 14:02:00,
2013-03-21 10:12:00,24.0,20.0,29.98,WSW,255,3.0,10.0,85,0.00,,,0.00,,2013-03-21 14:12:00,
2013-03-21 10:22:00,24.0,20.0,29.98,WSW,255,3.0,10.0,85,0.00,,,0.00,,2013-03-21 14:22:00,
2013-03-21 10:32:00,24.0,20.0,29.98,WSW,238,4.0,10.0,84,0.00,,,0.00,,2013-03-21 14:32:00,
2013-03-21 10:42:00,24.0,20.0,29.98,WSW,238,4.0,10.0,84,0.00,,,0.00,,2013-03-21 14:42:00,
2013-03-21 10:52:00,25.0,21.0,29.98,SW,235,4.0,13.0,83,0.00,,,0.00,,2013-03-21 14:52:00,
2013-03-21 11:04:00,25.0,21.0,29.98,West,264,5.0,12.0,83,0.00,,,0.00,,2013-03-21 15:04:00,
2013-03-21 11:12:00,25.0,21.0,29.98,West,264,5.0,12.0,83,0.00,,,0.00,,2013-03-21 15:12:00,
2013-03-21 11:22:00,25.0,21.0,29.98,West,264,5.0,12.0,83,0.00,,,0.00,,2013-03-21 15:22:00,
2013-03-21 11:33:00,26.0,21.0,29.98,WNW,282,7.0,14.0,80,0.00,,,0.00,,2013-03-21 15:33:00,
2013-03-21 11:43:00,26.0,21.0,29.98,WNW,282,7.0,14.0,80,0.00,,,0.00,,2013-03-21 15:43:00,
2013-03-21 11:53:00,26.0,21.0,29.98,WNW,282,7.0,14.0,80,0.00,,,0.00,,2013-03-21 15:53:00,
2013-03-21 12:03:00,28.0,21.0,29.98,West,263,8.0,15.0,76,0.00,,,0.00,,2013-03-21 16:03:00,
2013-03-21 12:13:00,28.0,21.0,29.98,West,263,8.0,15.0,76,0.00,,,0.00,,2013-03-21 16:13:00,
2013-03-21 12:23:00,29.0,22.0,29.98,West,267,7.0,12.0,76,0.00,,,0.00,,2013-03-21 16:23:00,
2013-03-21 12:33:00,29.0,21.0,29.98,West,269,6.0,14.0,73,0.00,,,0.00,,2013-03-21 16:33:00,
2013-03-21 12:42:00,29.0,21.0,29.98,West,269,6.0,14.0,73,0.00,,,0.00,,2013-03-21 16:42:00,
2013-03-21 12:52:00,29.0,21.0,29.99,WNW,288,6.0,17.0,73,0.00,,,0.00,,2013-03-21 16:52:00,
2013-03-21 13:03:00,30.0,22.0,29.99,West,271,4.0,12.0,71,0.00,,,0.00,,2013-03-21 17:03:00,
2013-03-21 13:12:00,30.0,22.0,29.99,West,271,4.0,12.0,71,0.00,,,0.00,,2013-03-21 17:12:00,
2013-03-21 13:23:00,30.0,21.0,29.99,WNW,290,5.0,14.0,69,0.00,,,0.00,,2013-03-21 17:23:00,
2013-03-21 13:33:00,30.0,21.0,29.99,WSW,254,7.0,13.0,68,0.00,,,0.00,,2013-03-21 17:33:00,
2013-03-21 13:43:00,30.0,21.0,29.99,WSW,254,7.0,13.0,68,0.00,,,0.00,,2013-03-21 17:43:00,
2013-03-21 13:52:00,29.0,21.0,29.99,WSW,257,8.0,17.0,73,0.00,,,0.00,,2013-03-21 17:52:00,
2013-03-21 14:02:00,29.0,22.0,29.99,West,265,6.0,16.0,76,0.00,,,0.00,,2013-03-21 18:02:00,
2013-03-21 14:12:00,29.0,22.0,29.99,West,265,6.0,16.0,76,0.00,,,0.00,,2013-03-21 18:12:00,
2013-03-21 14:23:00,30.0,22.0,29.99,West,273,8.0,16.0,73,0.00,,,0.00,,2013-03-21 18:23:00,
2013-03-21 14:32:00,30.0,23.0,29.99,West,264,8.0,16.0,75,0.00,,,0.00,,2013-03-21 18:32:00,
2013-03-21 14:42:00,30.0,23.0,29.99,West,264,8.0,16.0,75,0.00,,,0.00,,2013-03-21 18:42:00,
2013-03-21 14:52:00,32.0,24.0,29.98,WSW,248,7.0,16.0,71,0.00,,,0.00,,2013-03-21 18:52:00,
2013-03-21 15:02:00,32.0,23.0,29.98,West,273,6.0,15.0,70,0.00,,,0.00,,2013-03-21 19:02:00,
2013-03-21 15:12:00,32.0,23.0,29.98,West,273,6.0,15.0,70,0.00,,,0.00,,2013-03-21 19:12:00,
2013-03-21 15:22:00,32.0,24.0,29.98,WSW,257,5.0,12.0,73,0.00,,,0.00,,2013-03-21 19:22:00,
2013-03-21 15:32:00,31.0,22.0,29.98,West,268,7.0,15.0,70,0.00,,,0.00,,2013-03-21 19:32:00,
2013-03-21 15:43:00,31.0,22.0,29.98,West,268,7.0,15.0,70,0.00,,,0.00,,2013-03-21 19:43:00,
2013-03-21 15:52:00,32.0,24.0,29.98,West,265,6.0,13.0,72,0.00,,,0.00,,2013-03-21 19:52:00,
2013-03-21 16:02:00,32.0,23.0,29.98,SW,228,6.0,15.0,68,0.00,,,0.00,,2013-03-21 20:02:00,
2013-03-21 16:13:00,32.0,23.0,29.98,SW,228,6.0,15.0,68,0.00,,,0.00,,2013-03-21 20:13:00,
2013-03-21 16:23:00,31.0,22.0,29.98,WNW,301,9.0,18.0,68,0.00,,,0.00,,2013-03-21 20:23:00,
2013-03-21 16:33:00,31.0,22.0,29.98,WSW,240,7.0,19.0,68,0.00,,,0.00,,2013-03-21 20:33:00,
2013-03-21 16:42:00,31.0,22.0,29.98,WSW,240,7.0,19.0,68,0.00,,,0.00,,2013-03-21 20:42:00,
2013-03-21 16:53:00,31.0,22.0,29.98,WNW,292,6.0,18.0,69,0.00,,,0.00,,2013-03-21 20:53:00,
2013-03-21 17:03:00,31.0,22.0,29.98,SW,234,6.0,17.0,69,0.00,,,0.00,,2013-03-21 21:03:00,
2013-03-21 17:12:00,31.0,22.0,29.98,SW,234,6.0,17.0,69,0.00,,,0.00,,2013-03-21 21:12:00,
2013-03-21 17:22:00,31.0,22.0,29.99,WSW,252,5.0,17.0,68,0.00,,,0.00,,2013-03-21 21:22:00,
2013-03-21 17:33:00,32.0,22.0,29.99,West,275,6.0,13.0,67,0.00,,,0.00,,2013-03-21 21:33:00,
2013-03-21 17:43:00,32.0,22.0,29.99,West,275,6.0,13.0,67,0.00,,,0.00,,2013-03-21 21:43:00,
2013-03-21 17:53:00,31.0,22.0,29.99,SW,232,8.0,15.0,68,0.00,,,0.00,,2013-03-21 21:53:00,
2013-03-21 18:03:00,31.0,22.0,29.99,WSW,250,5.0,15.0,70,0.00,,,0.00,,2013-03-21 22:03:00,
2013-03-21 18:13:00,31.0,22.0,29.99,WSW,250,5.0,15.0,70,0.00,,,0.00,,2013-03-21 22:13:00,
2013-03-21 18:23:00,31.0,22.0,29.99,West,281,10.0,18.0,68,0.00,,,0.00,,2013-03-21 22:23:00,
2013-03-21 18:33:00,31.0,22.0,29.99,West,267,7.0,18.0,69,0.00,,,0.00,,2013-03-21 22:33:00,
2013-03-21 18:42:00,31.0,22.0,29.99,West,267,7.0,18.0,69,0.00,,,0.00,,2013-03-21 22:42:00,
2013-03-21 18:52:00,31.0,22.0,29.99,WSW,257,7.0,15.0,69,0.00,,,0.00,,2013-03-21 22:52:00,
2013-03-21 19:02:00,31.0,22.0,29.99,West,276,6.0,13.0,69,0.00,,,0.00,,2013-03-21 23:02:00,
2013-03-21 19:12:00,31.0,22.0,29.99,West,276,6.0,13.0,69,0.00,,,0.00,,2013-03-21 23:12:00,
2013-03-21 19:22:00,31.0,22.0,29.99,West,263,6.0,16.0,69,0.00,,,0.00,,2013-03-21 23:22:00,
2013-03-21 19:33:00,31.0,22.0,30.00,West,276,3.0,11.0,69,0.00,,,0.00,,2013-03-21 23:33:00,
2013-03-21 19:43:00,31.0,22.0,30.00,West,276,3.0,11.0,69,0.00,,,0.00,,2013-03-21 23:43:00,
2013-03-21 19:52:00,30.0,20.0,30.00,West,262,6.0,13.0,67,0.00,,,0.00,,2013-03-21 23:52:00,
2013-03-21 20:03:00,30.0,20.0,30.01,WSW,237,6.0,10.0,67,0.00,,,0.00,,2013-03-22 00:03:00,
2013-03-21 20:13:00,30.0,20.0,30.01,WSW,237,6.0,10.0,67,0.00,,,0.00,,2013-03-22 00:13:00,
2013-03-21 20:22:00,29.0,19.0,30.01,West,265,9.0,16.0,67,0.00,,,0.00,,2013-03-22 00:22:00,
2013-03-21 20:32:00,29.0,20.0,30.01,West,279,5.0,12.0,69,0.00,,,0.00,,2013-03-22 00:32:00,
2013-03-21 20:42:00,29.0,20.0,30.01,West,279,5.0,12.0,69,0.00,,,0.00,,2013-03-22 00:42:00,
2013-03-21 20:52:00,28.0,20.0,30.01,West,271,4.0,12.0,70,0.00,,,0.00,,2013-03-22 00:52:00,
2013-03-21 21:03:00,27.0,19.0,30.01,West,260,4.0,12.0,70,0.00,,,0.00,,2013-03-22 01:03:00,
2013-03-21 21:12:00,27.0,19.0,30.01,West,260,4.0,12.0,70,0.00,,,0.00,,2013-03-22 01:12:00,
2013-03-21 21:22:00,27.0,19.0,30.01,West,269,4.0,8.0,72,0.00,,,0.00,,2013-03-22 01:22:00,
2013-03-21 21:32:00,27.0,19.0,30.02,West,259,5.0,10.0,72,0.00,,,0.00,,2013-03-22 01:32:00,
2013-03-21 21:43:00,27.0,19.0,30.02,West,259,5.0,10.0,72,0.00,,,0.00,,2013-03-22 01:43:00,
2013-03-21 21:53:00,27.0,20.0,30.02,WSW,246,4.0,8.0,74,0.00,,,0.00,,2013-03-22 01:53:00,
2013-03-21 22:03:00,27.0,20.0,30.02,WSW,248,4.0,9.0,73,0.00,,,0.00,,2013-03-22 02:03:00,
2013-03-21 22:12:00,27.0,20.0,30.02,WSW,248,4.0,9.0,73,0.00,,,0.00,,2013-03-22 02:12:00,
2013-03-21 22:22:00,27.0,19.0,30.02,SW,231,4.0,8.0,72,0.00,,,0.00,,2013-03-22 02:22:00,
2013-03-21 22:32:00,27.0,20.0,30.02,WNW,296,1.0,6.0,73,0.00,,,0.00,,2013-03-22 02:32:00,
2013-03-21 22:43:00,27.0,20.0,30.02,WNW,296,1.0,6.0,73,0.00,,,0.00,,2013-03-22 02:43:00,
2013-03-21 22:52:00,27.0,20.0,30.02,WNW,296,1.0,6.0,73,0.00,,,0.00,,2013-03-22 02:52:00,
2013-03-21 23:02:00,27.0,19.0,30.03,West,267,4.0,11.0,72,0.00,,,0.00,,2013-03-22 03:02:00,
2013-03-21 23:12:00,27.0,19.0,30.03,West,267,4.0,11.0,72,0.00,,,0.00,,2013-03-22 03:12:00,
2013-03-21 23:22:00,27.0,19.0,30.03,WSW,254,5.0,11.0,71,0.00,,,0.00,,2013-03-22 03:22:00,
2013-03-21 23:33:00,27.0,19.0,30.03,WSW,256,6.0,15.0,71,0.00,,,0.00,,2013-03-22 03:33:00,
2013-03-21 23:43:00,27.0,19.0,30.03,WSW,256,6.0,15.0,71,0.00,,,0.00,,2013-03-22 03:43:00,
2013-03-21 23:53:00,27.0,19.0,30.03,West,263,5.0,11.0,72,0.00,,,0.00,,2013-03-22 03:53:00,